Weather History for Cocoa Beach, FL

Change the Weather History Date:

Tuesday, May 21, 2013

  Actual Average Record
Temperature  
Mean Temperature 74 °F -  
Max Temperature 79 °F 81 °F 93 °F (2008)
Min Temperature 68 °F 70 °F 66 °F (2000)
Cooling Degree Days 8    
Growing Degree Days 24 (Base 50)    
Moisture  
Dew Point 69 °F    
Average Humidity 87    
Maximum Humidity 94    
Minimum Humidity 75    
Precipitation  
Precipitation 1.02 in - - ()
Sea Level Pressure  
Sea Level Pressure 30.02 in    
Wind  
Wind Speed 10 mph (ESE)    
Max Wind Speed 22 mph    
Max Gust Speed 25 mph    
Visibility 8 miles    
Events Rain , Thunderstorm    
Averages and records for this station are not official NWS values.
T = Trace of Precipitation, MM = Missing Value Source: NWS Daily Summary

Daily Weather History Graph

Daily Weather History Graph

Search for Another Location

Airport:

Trip Planner

Search our weather history database for the weather conditions in past years. The results will help you decide how hot, cold, wet, or windy it might be!

Date:

Astronomy

May. 21, 2013 Rise Set
Actual Time 6:29 AM EDT 8:09 PM EDT
Civil Twilight 6:03 AM EDT 8:35 PM EDT
Nautical Twilight 5:32 AM EDT 9:06 PM EDT
Astronomical Twilight 4:59 AM EDT 9:39 PM EDT
Moon 4:37 PM EDT (5/21) 3:36 AM EDT (5/21)
Length of Visible Light 14h 31m
Length of Day
13h 40m
Waxing Gibbous, 84% of the Moon is Illuminated
May 21
Waxing Gibbous
May 25
Full
May 31
Last Quarter
Jun 8
New
Jun 16
First Quarter

Hourly Weather History & Observations

Time (EDT) Temp. Dew Point Humidity Pressure Visibility Wind Dir Wind Speed Gust Speed Precip Events Conditions
12:58 AM 75.9 °F 71.8 °F 87% 30.06 in 10.0 mi SE 6.9 mph - N/A   Scattered Clouds
1:58 AM 75.6 °F 71.8 °F 88% 30.04 in 10.0 mi SE 9.2 mph - N/A   Clear
2:58 AM 75.6 °F 71.1 °F 86% 30.01 in 10.0 mi SSE 6.9 mph - N/A   Clear
3:36 AM 75.2 °F 69.8 °F 83% 29.99 in 10.0 mi SSE 20.7 mph 25.3 mph N/A   Scattered Clouds
3:42 AM 73.4 °F 68.0 °F 83% 30.00 in 9.0 mi SSE 21.9 mph - N/A Rain Light Rain
3:47 AM 71.6 °F 68.0 °F 88% 30.00 in 4.0 mi SSE 20.7 mph - N/A Rain Rain
3:52 AM 71.6 °F 69.8 °F 94% 30.00 in 2.0 mi SE 20.7 mph - N/A Rain Heavy Rain
3:57 AM 71.6 °F 68.0 °F 88% 30.01 in 1.5 mi SE 19.6 mph - N/A Rain Heavy Rain
3:58 AM 71.6 °F 68.0 °F 88% 30.03 in 1.5 mi SE 18.4 mph - 0.15 in Rain Heavy Rain
4:13 AM 69.8 °F 68.0 °F 94% 30.01 in 1.8 mi SE 17.3 mph - N/A Rain Heavy Rain
4:28 AM 68.0 °F 66.2 °F 94% 30.01 in 2.0 mi South 8.1 mph - N/A Rain Heavy Rain
4:38 AM 68.0 °F 66.2 °F 94% 30.01 in 3.0 mi South 4.6 mph - N/A Rain Light Rain
4:43 AM 68.0 °F 66.2 °F 94% 30.01 in 5.0 mi South 1.2 mph - N/A Rain Light Rain
4:58 AM 68.7 °F 66.6 °F 93% 30.03 in 10.0 mi NE 4.6 mph - 0.79 in   Light Drizzle
5:01 AM 68.0 °F 66.2 °F 94% 30.00 in 10.0 mi ENE 5.8 mph - N/A   Scattered Clouds
5:06 AM 69.8 °F 66.2 °F 88% 30.01 in 8.0 mi East 5.8 mph - N/A Rain Rain
5:11 AM 69.8 °F 68.0 °F 94% 30.01 in 4.0 mi ESE 6.9 mph - N/A Rain Rain
5:16 AM 69.8 °F 68.0 °F 94% 30.01 in 4.0 mi ESE 2.3 mph - N/A Rain Rain
5:21 AM 69.8 °F 68.0 °F 94% 30.01 in 7.0 mi East 4.6 mph - N/A Rain Light Rain
5:26 AM 69.8 °F 68.0 °F 94% 30.01 in 10.0 mi ESE 6.9 mph - N/A   Light Drizzle
5:35 AM 69.8 °F 68.0 °F 94% 30.01 in 10.0 mi East 5.8 mph - N/A   Partly Cloudy
5:58 AM 70.9 °F 68.2 °F 91% 30.04 in 10.0 mi NNE 3.5 mph - 0.07 in   Clear
6:00 AM 71.6 °F 68.0 °F 88% 30.02 in 10.0 mi NE 3.5 mph - N/A   Light Drizzle
6:23 AM 71.6 °F 69.8 °F 94% 30.02 in 10.0 mi East 5.8 mph - N/A   Clear
6:58 AM 73.0 °F 70.3 °F 91% 30.04 in 10.0 mi SE 9.2 mph - 0.00 in   Clear
7:58 AM 74.7 °F 71.4 °F 90% 30.04 in 10.0 mi SSE 10.4 mph - N/A   Clear
8:58 AM 75.6 °F 71.1 °F 86% 30.06 in 10.0 mi SSE 9.2 mph - N/A   Clear
9:58 AM 78.1 °F 71.4 °F 80% 30.06 in 10.0 mi SE 6.9 mph - N/A   Clear
10:58 AM 78.8 °F 71.8 °F 79% 30.06 in 10.0 mi East 10.4 mph - N/A   Clear
11:58 AM 79.3 °F 71.6 °F 77% 30.08 in 10.0 mi East 8.1 mph - N/A Thunderstorm Clear
12:35 PM 75.2 °F 69.8 °F 83% 30.05 in 10.0 mi West 5.8 mph - N/A   Light Drizzle
12:51 PM 73.4 °F 69.8 °F 88% 30.04 in 10.0 mi West 8.1 mph - N/A   Mostly Cloudy
12:58 PM 73.9 °F 69.8 °F 87% 30.06 in 10.0 mi WNW 6.9 mph - 0.00 in   Mostly Cloudy
1:44 PM 77.0 °F 69.8 °F 78% 30.04 in 10.0 mi North 5.8 mph - N/A   Light Drizzle
1:58 PM 77.2 °F 70.5 °F 80% 30.04 in 10.0 mi Variable 4.6 mph - 0.00 in   Light Drizzle
2:01 PM 77.0 °F 71.6 °F 83% 30.03 in 10.0 mi North 4.6 mph - N/A   Scattered Clouds
2:58 PM 77.5 °F 69.1 °F 75% 30.04 in 10.0 mi East 8.1 mph - 0.00 in   Clear
3:04 PM 77.0 °F 69.8 °F 78% 30.02 in 10.0 mi East 10.4 mph - N/A   Light Drizzle
3:38 PM 77.0 °F 71.6 °F 83% 30.01 in 10.0 mi ENE 10.4 mph - N/A   Clear
3:58 PM 76.5 °F 72.0 °F 86% 30.03 in 10.0 mi ENE 12.7 mph - 0.01 in   Clear
4:58 PM 77.5 °F 71.6 °F 82% 29.99 in 10.0 mi East 13.8 mph - N/A   Clear
5:58 PM 77.2 °F 70.7 °F 80% 29.99 in 10.0 mi East 16.1 mph - N/A   Clear
6:58 PM 76.1 °F 69.3 °F 79% 29.99 in 10.0 mi East 13.8 mph - N/A   Clear
7:58 PM 76.5 °F 69.6 °F 79% 29.99 in 10.0 mi ESE 11.5 mph - N/A   Partly Cloudy
8:58 PM 76.8 °F 69.3 °F 77% 29.99 in 10.0 mi SE 15.0 mph - N/A   Partly Cloudy
9:58 PM 75.0 °F 70.2 °F 85% 29.99 in 10.0 mi South 10.4 mph - N/A   Clear
10:58 PM 75.0 °F 70.0 °F 84% 30.01 in 10.0 mi SE 8.1 mph - N/A   Clear
11:58 PM 75.7 °F 71.8 °F 87% 29.99 in 10.0 mi SSE 11.5 mph - N/A   Partly Cloudy